| time (UTC) | temp C | wind direction | speed KPH | gust KPH | rain 1hr cm | rain 24hr cm | rain mn cm | humidity % | barometer mb |
| 20260902185030 | 25 | 325 | 6.4 | 16.1 | 0.00 | 0.00 | 0.00 | 49 | 1012.4 |
| 20260902184533 | 25 | 351 | 6.4 | 16.1 | 0.00 | 0.00 | 0.00 | 49 | 1012.4 |
| 20260902183527 | 25 | 325 | 6.4 | 17.7 | 0.00 | 0.00 | 0.00 | 48 | 1012.5 |
| 20260902183029 | 24 | 0 | 6.4 | 17.7 | 0.00 | 0.00 | 0.00 | 49 | 1012.5 |
| 20260902182525 | 24 | 344 | 6.4 | 16.1 | 0.00 | 0.00 | 0.00 | 49 | 1012.4 |
| 20260902182025 | 24 | 318 | 6.4 | 14.5 | 0.00 | 0.00 | 0.00 | 49 | 1012.4 |
| 20260902181522 | 23 | 320 | 6.4 | 14.5 | 0.00 | 0.00 | 0.00 | 49 | 1012.4 |
| 20260902181023 | 24 | 310 | 4.8 | 14.5 | 0.00 | 0.00 | 0.00 | 49 | 1012.5 |
| 20260902180522 | 23 | 333 | 4.8 | 11.3 | 0.00 | 0.00 | 0.00 | 51 | 1012.5 |
| 20260902180020 | 23 | 340 | 4.8 | 9.7 | 0.00 | 0.00 | 0.00 | 51 | 1012.5 |
| 20260902175518 | 23 | 309 | 4.8 | 9.7 | 0.00 | 0.00 | 0.00 | 51 | 1012.5 |
| 20260902175021 | 23 | 329 | 4.8 | 14.5 | 0.00 | 0.00 | 0.00 | 52 | 1012.4 |
| 20260902174519 | 22 | 317 | 4.8 | 14.5 | 0.00 | 0.00 | 0.00 | 52 | 1012.4 |
| 20260902174017 | 23 | 318 | 4.8 | 9.7 | 0.00 | 0.00 | 0.00 | 52 | 1012.4 |
| 20260902173009 | 22 | 325 | 3.2 | 9.7 | 0.00 | 0.00 | 0.00 | 53 | 1012.3 |
| 20260902172006 | 22 | 325 | 6.4 | 11.3 | 0.00 | 0.00 | 0.00 | 53 | 1012.3 |
| 20260902171504 | 22 | 327 | 4.8 | 11.3 | 0.00 | 0.00 | 0.00 | 55 | 1012.3 |
| 20260902171000 | 21 | 268 | 4.8 | 11.3 | 0.00 | 0.00 | 0.00 | 55 | 1012.3 |
| 20260902170457 | 21 | 329 | 6.4 | 14.5 | 0.00 | 0.00 | 0.00 | 57 | 1012.3 |
| 20260902165957 | 21 | 286 | 4.8 | 14.5 | 0.00 | 0.00 | 0.00 | 57 | 1012.3 |
| 20260902164456 | 21 | 334 | 4.8 | 14.5 | 0.00 | 0.00 | 0.00 | 62 | 1012.3 |
| 20260902163953 | 21 | 350 | 3.2 | 14.5 | 0.00 | 0.00 | 0.00 | 63 | 1012.2 |
| 20260902162951 | 20 | 347 | 3.2 | 6.4 | 0.00 | 0.00 | 0.00 | 67 | 1012.2 |
| 20260902162447 | 20 | 312 | 1.6 | 6.4 | 0.00 | 0.00 | 0.00 | 67 | 1012.2 |
| 20260902161942 | 19 | 309 | 1.6 | 6.4 | 0.00 | 0.00 | 0.00 | 69 | 1012.2 |
| 20260902160937 | 18 | 309 | 0.0 | 0.0 | 0.00 | 0.00 | 0.00 | 77 | 1012.2 |
| 20260902160430 | 17 | 309 | 0.0 | 0.0 | 0.00 | 0.00 | 0.00 | 80 | 1012.2 |
| 20260902155924 | 17 | 309 | 0.0 | 0.0 | 0.00 | 0.00 | 0.00 | 81 | 1012.2 |
| 20260902155423 | 17 | 309 | 0.0 | 0.0 | 0.00 | 0.00 | 0.00 | 81 | 1012.2 |
| 20260902154918 | 16 | 309 | 0.0 | 0.0 | 0.00 | 0.00 | 0.00 | 82 | 1012.2 |
| 20260902153915 | 16 | 309 | 0.0 | 0.0 | 0.00 | 0.00 | 0.00 | 83 | 1012.1 |
| 20260902152410 | 15 | 309 | 0.0 | 0.0 | 0.00 | 0.00 | 0.00 | 86 | 1012.1 |
| 20260902151906 | 15 | 309 | 0.0 | 0.0 | 0.00 | 0.00 | 0.00 | 87 | 1012.1 |
| 20260902151400 | 15 | 309 | 0.0 | 0.0 | 0.00 | 0.00 | 0.00 | 88 | 1012.1 |
| 20260902150858 | 15 | 309 | 0.0 | 3.2 | 0.00 | 0.00 | 0.00 | 89 | 1012.2 |
| 20260902150356 | 15 | 309 | 0.0 | 3.2 | 0.00 | 0.00 | 0.00 | 90 | 1012.2 |
| 20260902145857 | 14 | 309 | 0.0 | 3.2 | 0.00 | 0.00 | 0.00 | 91 | 1012.2 |
| 20260902145355 | 13 | 309 | 0.0 | 1.6 | 0.00 | 0.00 | 0.00 | 92 | 1012.2 |
| 20260902144358 | 13 | 309 | 0.0 | 3.2 | 0.00 | 0.00 | 0.00 | 93 | 1011.7 |
| 20260902143851 | 13 | 309 | 0.0 | 1.6 | 0.00 | 0.00 | 0.00 | 93 | 1011.7 |
| 20260902143348 | 12 | 309 | 0.0 | 0.0 | 0.00 | 0.00 | 0.00 | 94 | 1011.7 |
| 20260902142847 | 12 | 309 | 0.0 | 0.0 | 0.00 | 0.00 | 0.00 | 95 | 1011.6 |
| 20260902142348 | 11 | 309 | 0.0 | 0.0 | 0.00 | 0.00 | 0.00 | 95 | 1011.6 |
| 20260902140846 | 11 | 309 | 0.0 | 0.0 | 0.00 | 0.00 | 0.00 | 94 | 1011.5 |
| 20260902140339 | 11 | 309 | 0.0 | 0.0 | 0.00 | 0.00 | 0.00 | 94 | 1011.5 |
| 20260902135837 | 11 | 309 | 0.0 | 0.0 | 0.00 | 0.00 | 0.00 | 93 | 1011.6 |
| 20260902135336 | 11 | 309 | 0.0 | 3.2 | 0.00 | 0.00 | 0.00 | 94 | 1011.6 |
| 20260902134836 | 11 | 309 | 0.0 | 3.2 | 0.00 | 0.00 | 0.00 | 94 | 1011.6 |
| 20260902133836 | 11 | 309 | 1.6 | 3.2 | 0.00 | 0.00 | 0.00 | 93 | 1011.7 |
| 20260902133337 | 11 | 309 | 1.6 | 4.8 | 0.00 | 0.00 | 0.00 | 94 | 1011.7 |
| 20260902132834 | 12 | 309 | 1.6 | 4.8 | 0.00 | 0.00 | 0.00 | 94 | 1011.7 |
| 20260902132333 | 12 | 309 | 1.6 | 4.8 | 0.00 | 0.00 | 0.00 | 94 | 1011.7 |
| 20260902131832 | 12 | 309 | 1.6 | 4.8 | 0.00 | 0.00 | 0.00 | 94 | 1011.7 |
| 20260902131332 | 12 | 309 | 1.6 | 4.8 | 0.00 | 0.00 | 0.00 | 94 | 1011.6 |
| 20260902130828 | 11 | 309 | 1.6 | 6.4 | 0.00 | 0.00 | 0.00 | 94 | 1011.6 |
| 20260902125829 | 11 | 309 | 1.6 | 6.4 | 0.00 | 0.00 | 0.00 | 94 | 1011.7 |
| 20260902125327 | 11 | 309 | 1.6 | 4.8 | 0.00 | 0.00 | 0.00 | 93 | 1011.7 |
| 20260902124827 | 11 | 309 | 3.2 | 4.8 | 0.00 | 0.00 | 0.00 | 93 | 1011.7 |
| 20260902124325 | 11 | 309 | 3.2 | 6.4 | 0.00 | 0.00 | 0.00 | 93 | 1011.8 |
| 20260902123321 | 11 | 309 | 0.0 | 3.2 | 0.00 | 0.00 | 0.00 | 92 | 1011.8 |
| 20260902122819 | 11 | 309 | 0.0 | 3.2 | 0.00 | 0.00 | 0.00 | 93 | 1011.8 |
| 20260902121813 | 11 | 309 | 0.0 | 3.2 | 0.00 | 0.00 | 0.00 | 93 | 1011.8 |
| 20260902121310 | 11 | 309 | 0.0 | 0.0 | 0.00 | 0.00 | 0.00 | 92 | 1011.7 |
| 20260902120807 | 11 | 309 | 0.0 | 0.0 | 0.00 | 0.00 | 0.00 | 93 | 1011.7 |
| 20260902120307 | 11 | 309 | 0.0 | 0.0 | 0.00 | 0.00 | 0.00 | 92 | 1011.7 |
| 20260902115807 | 11 | 309 | 0.0 | 0.0 | 0.00 | 0.00 | 0.00 | 93 | 1011.9 |
| 20260902115308 | 11 | 309 | 0.0 | 0.0 | 0.00 | 0.00 | 0.00 | 92 | 1011.9 |
| 20260902114804 | 11 | 309 | 0.0 | 0.0 | 0.00 | 0.00 | 0.00 | 92 | 1011.9 |
| 20260902113804 | 11 | 309 | 0.0 | 0.0 | 0.00 | 0.00 | 0.00 | 92 | 1011.7 |
| 20260902113300 | 11 | 309 | 0.0 | 0.0 | 0.00 | 0.00 | 0.00 | 92 | 1011.7 |
| 20260902112756 | 11 | 309 | 0.0 | 0.0 | 0.00 | 0.00 | 0.00 | 93 | 1011.6 |
| 20260902112248 | 11 | 309 | 0.0 | 0.0 | 0.00 | 0.00 | 0.00 | 92 | 1011.6 |
| 20260902111746 | 11 | 309 | 0.0 | 0.0 | 0.00 | 0.00 | 0.00 | 92 | 1011.6 |
| 20260902111246 | 11 | 309 | 0.0 | 0.0 | 0.00 | 0.00 | 0.00 | 93 | 1011.5 |
| 20260902110745 | 11 | 309 | 0.0 | 0.0 | 0.00 | 0.00 | 0.00 | 93 | 1011.5 |
| 20260902110244 | 11 | 309 | 0.0 | 0.0 | 0.00 | 0.00 | 0.00 | 93 | 1011.5 |
| 20260902105738 | 11 | 309 | 0.0 | 0.0 | 0.00 | 0.00 | 0.00 | 92 | 1011.5 |
| 20260902105237 | 11 | 309 | 0.0 | 0.0 | 0.00 | 0.00 | 0.00 | 93 | 1011.5 |
| 20260902104733 | 11 | 309 | 0.0 | 0.0 | 0.00 | 0.00 | 0.00 | 93 | 1011.5 |
| 20260902104228 | 11 | 309 | 0.0 | 0.0 | 0.00 | 0.00 | 0.00 | 93 | 1011.4 |
| 20260902103727 | 11 | 309 | 0.0 | 0.0 | 0.00 | 0.00 | 0.00 | 93 | 1011.4 |
| 20260902103225 | 11 | 309 | 0.0 | 0.0 | 0.00 | 0.00 | 0.00 | 93 | 1011.4 |
| 20260902102728 | 11 | 309 | 0.0 | 0.0 | 0.00 | 0.00 | 0.00 | 93 | 1011.5 |
| 20260902102220 | 12 | 309 | 0.0 | 0.0 | 0.00 | 0.00 | 0.00 | 93 | 1011.5 |
| 20260902101720 | 12 | 309 | 0.0 | 0.0 | 0.00 | 0.00 | 0.00 | 93 | 1011.5 |
| 20260902101220 | 11 | 309 | 0.0 | 0.0 | 0.00 | 0.00 | 0.00 | 93 | 1011.5 |
| 20260902100718 | 11 | 309 | 0.0 | 0.0 | 0.00 | 0.00 | 0.00 | 93 | 1011.5 |
| 20260902100210 | 11 | 309 | 0.0 | 0.0 | 0.00 | 0.00 | 0.00 | 93 | 1011.5 |
| 20260902095708 | 11 | 309 | 0.0 | 0.0 | 0.00 | 0.00 | 0.00 | 93 | 1011.7 |
| 20260902095205 | 11 | 309 | 0.0 | 0.0 | 0.00 | 0.00 | 0.00 | 93 | 1011.7 |
| 20260902094708 | 11 | 309 | 0.0 | 0.0 | 0.00 | 0.00 | 0.00 | 93 | 1011.7 |
| 20260902094201 | 11 | 309 | 0.0 | 0.0 | 0.00 | 0.00 | 0.00 | 93 | 1011.8 |
| 20260902093659 | 11 | 309 | 0.0 | 0.0 | 0.00 | 0.00 | 0.00 | 93 | 1011.8 |
| 20260902093157 | 11 | 309 | 0.0 | 0.0 | 0.00 | 0.00 | 0.00 | 93 | 1011.8 |
| 20260902092656 | 11 | 309 | 0.0 | 0.0 | 0.00 | 0.00 | 0.00 | 93 | 1011.8 |
| 20260902091655 | 11 | 309 | 0.0 | 0.0 | 0.00 | 0.00 | 0.00 | 93 | 1011.8 |
| 20260902091150 | 11 | 309 | 0.0 | 0.0 | 0.00 | 0.00 | 0.00 | 92 | 1011.9 |
| 20260902090650 | 11 | 309 | 0.0 | 0.0 | 0.00 | 0.00 | 0.00 | 92 | 1011.9 |
| 20260902090152 | 11 | 309 | 0.0 | 0.0 | 0.00 | 0.00 | 0.00 | 92 | 1011.9 |
| 20260902085647 | 11 | 309 | 0.0 | 0.0 | 0.00 | 0.00 | 0.00 | 92 | 1012.0 |
| 20260902084637 | 11 | 309 | 0.0 | 0.0 | 0.00 | 0.00 | 0.00 | 92 | 1012.0 |
| 20260902084134 | 11 | 309 | 0.0 | 0.0 | 0.00 | 0.00 | 0.00 | 92 | 1012.0 |
| 20260902083629 | 11 | 309 | 0.0 | 0.0 | 0.00 | 0.00 | 0.00 | 92 | 1012.0 |
| 20260902083130 | 11 | 309 | 0.0 | 0.0 | 0.00 | 0.00 | 0.00 | 92 | 1012.0 |
| 20260902082626 | 12 | 309 | 0.0 | 0.0 | 0.00 | 0.00 | 0.00 | 92 | 1012.0 |
| 20260902082124 | 12 | 309 | 0.0 | 0.0 | 0.00 | 0.00 | 0.00 | 92 | 1012.0 |
| 20260902081621 | 12 | 309 | 0.0 | 0.0 | 0.00 | 0.00 | 0.00 | 92 | 1012.0 |
| 20260902081123 | 12 | 309 | 0.0 | 0.0 | 0.00 | 0.00 | 0.00 | 92 | 1011.6 |
| 20260902080618 | 12 | 309 | 0.0 | 0.0 | 0.00 | 0.00 | 0.00 | 92 | 1011.6 |
| 20260902080112 | 12 | 309 | 0.0 | 0.0 | 0.00 | 0.00 | 0.00 | 92 | 1011.6 |
| 20260902075112 | 12 | 309 | 0.0 | 0.0 | 0.00 | 0.00 | 0.00 | 92 | 1011.6 |
| 20260902074606 | 12 | 309 | 0.0 | 0.0 | 0.00 | 0.00 | 0.00 | 91 | 1011.6 |
| 20260902074106 | 12 | 309 | 0.0 | 0.0 | 0.00 | 0.00 | 0.00 | 91 | 1011.6 |
| 20260902073609 | 12 | 309 | 0.0 | 0.0 | 0.00 | 0.00 | 0.00 | 91 | 1011.6 |
| 20260902073104 | 12 | 309 | 0.0 | 0.0 | 0.00 | 0.00 | 0.00 | 91 | 1011.6 |
| 20260902072606 | 12 | 309 | 0.0 | 0.0 | 0.00 | 0.00 | 0.00 | 91 | 1011.6 |
| 20260902072059 | 12 | 309 | 0.0 | 0.0 | 0.00 | 0.00 | 0.00 | 91 | 1011.6 |
| 20260902071557 | 12 | 309 | 0.0 | 0.0 | 0.00 | 0.00 | 0.00 | 91 | 1011.6 |
| 20260902071056 | 13 | 309 | 0.0 | 0.0 | 0.00 | 0.00 | 0.00 | 91 | 1011.6 |
| 20260902070059 | 13 | 309 | 0.0 | 0.0 | 0.00 | 0.00 | 0.00 | 91 | 1011.6 |
| 20260902065556 | 13 | 309 | 0.0 | 0.0 | 0.00 | 0.00 | 0.00 | 90 | 1011.6 |
| 20260902065050 | 13 | 309 | 0.0 | 0.0 | 0.00 | 0.00 | 0.00 | 90 | 1011.6 |
| 20260902064544 | 13 | 309 | 0.0 | 0.0 | 0.00 | 0.00 | 0.00 | 90 | 1011.6 |
| 20260902063543 | 13 | 309 | 0.0 | 0.0 | 0.00 | 0.00 | 0.00 | 90 | 1011.6 |
| 20260902062534 | 13 | 309 | 0.0 | 1.6 | 0.00 | 0.00 | 0.00 | 90 | 1011.6 |
| 20260902062035 | 13 | 309 | 0.0 | 0.0 | 0.00 | 0.00 | 0.00 | 89 | 1011.6 |
| 20260902061029 | 13 | 309 | 0.0 | 0.0 | 0.00 | 0.00 | 0.00 | 89 | 1011.8 |
| 20260902060026 | 14 | 309 | 0.0 | 0.0 | 0.00 | 0.00 | 0.00 | 89 | 1011.8 |
| 20260902055524 | 14 | 309 | 0.0 | 0.0 | 0.00 | 0.00 | 0.00 | 89 | 1011.8 |
| 20260902055024 | 14 | 309 | 0.0 | 0.0 | 0.00 | 0.00 | 0.00 | 88 | 1011.8 |
| 20260902054521 | 14 | 309 | 0.0 | 0.0 | 0.00 | 0.00 | 0.00 | 88 | 1011.8 |
| 20260902054018 | 15 | 309 | 0.0 | 0.0 | 0.00 | 0.00 | 0.00 | 88 | 1012.1 |
| 20260902053017 | 15 | 309 | 0.0 | 0.0 | 0.00 | 0.00 | 0.00 | 88 | 1012.1 |
| 20260902052510 | 15 | 309 | 0.0 | 0.0 | 0.00 | 0.00 | 0.00 | 88 | 1012.1 |
| 20260902052004 | 15 | 309 | 0.0 | 0.0 | 0.00 | 0.00 | 0.00 | 88 | 1012.1 |
| 20260902051505 | 15 | 309 | 0.0 | 0.0 | 0.00 | 0.00 | 0.00 | 88 | 1012.1 |
| 20260902051001 | 15 | 309 | 0.0 | 0.0 | 0.00 | 0.00 | 0.00 | 88 | 1012.1 |
| 20260902050503 | 15 | 309 | 0.0 | 0.0 | 0.00 | 0.00 | 0.00 | 88 | 1012.1 |
| 20260902045956 | 15 | 309 | 0.0 | 1.6 | 0.00 | 0.00 | 0.00 | 87 | 1012.1 |
| 20260902044458 | 15 | 309 | 0.0 | 4.8 | 0.00 | 0.00 | 0.00 | 87 | 1011.9 |
| 20260902043957 | 15 | 309 | 1.6 | 4.8 | 0.00 | 0.00 | 0.00 | 87 | 1011.7 |
| 20260902043454 | 16 | 309 | 1.6 | 4.8 | 0.00 | 0.00 | 0.00 | 87 | 1011.7 |
| 20260902042448 | 16 | 309 | 3.2 | 9.7 | 0.00 | 0.00 | 0.00 | 86 | 1011.6 |
| 20260902041448 | 16 | 312 | 1.6 | 6.4 | 0.00 | 0.00 | 0.00 | 86 | 1011.6 |
| 20260902040944 | 16 | 311 | 1.6 | 6.4 | 0.00 | 0.00 | 0.00 | 86 | 1011.5 |
| 20260902040444 | 16 | 311 | 1.6 | 6.4 | 0.00 | 0.00 | 0.00 | 86 | 1011.5 |
| 20260902035941 | 16 | 311 | 1.6 | 4.8 | 0.00 | 0.00 | 0.00 | 86 | 1011.5 |
| 20260902035440 | 16 | 311 | 1.6 | 6.4 | 0.00 | 0.00 | 0.00 | 86 | 1011.1 |
| 20260902034937 | 16 | 311 | 1.6 | 6.4 | 0.00 | 0.00 | 0.00 | 85 | 1011.1 |
| 20260902034436 | 16 | 310 | 1.6 | 6.4 | 0.00 | 0.00 | 0.00 | 85 | 1011.1 |
| 20260902033937 | 16 | 310 | 1.6 | 6.4 | 0.00 | 0.00 | 0.00 | 85 | 1011.0 |
| 20260902033431 | 16 | 306 | 3.2 | 8.0 | 0.00 | 0.00 | 0.00 | 85 | 1011.0 |
| 20260902032930 | 16 | 306 | 3.2 | 8.0 | 0.00 | 0.00 | 0.00 | 85 | 1011.0 |
| 20260902032429 | 16 | 306 | 1.6 | 6.4 | 0.00 | 0.00 | 0.00 | 85 | 1010.9 |
| 20260902031929 | 16 | 306 | 1.6 | 8.0 | 0.00 | 0.00 | 0.00 | 84 | 1010.9 |
| 20260902031429 | 16 | 306 | 1.6 | 8.0 | 0.00 | 0.00 | 0.00 | 84 | 1010.9 |
| 20260902030927 | 16 | 306 | 1.6 | 6.4 | 0.00 | 0.00 | 0.00 | 84 | 1010.8 |
| 20260902025923 | 16 | 306 | 3.2 | 6.4 | 0.00 | 0.00 | 0.00 | 83 | 1010.8 |
| 20260902025423 | 16 | 306 | 3.2 | 8.0 | 0.00 | 0.00 | 0.00 | 82 | 1010.7 |
| 20260902024920 | 16 | 308 | 4.8 | 11.3 | 0.00 | 0.00 | 0.00 | 82 | 1010.7 |
| 20260902024417 | 16 | 309 | 3.2 | 11.3 | 0.00 | 0.00 | 0.00 | 82 | 1010.7 |
| 20260902023915 | 16 | 317 | 3.2 | 8.0 | 0.00 | 0.00 | 0.00 | 82 | 1010.7 |
| 20260902023411 | 16 | 317 | 3.2 | 11.3 | 0.00 | 0.00 | 0.00 | 82 | 1010.7 |
| 20260902022910 | 16 | 320 | 4.8 | 11.3 | 0.00 | 0.00 | 0.00 | 81 | 1010.7 |
| 20260902022410 | 17 | 296 | 4.8 | 11.3 | 0.00 | 0.00 | 0.00 | 80 | 1010.7 |
| 20260902021908 | 17 | 319 | 4.8 | 12.9 | 0.00 | 0.00 | 0.00 | 80 | 1010.7 |
| 20260902020909 | 17 | 274 | 6.4 | 17.7 | 0.00 | 0.00 | 0.00 | 77 | 1010.7 |
| 20260902020404 | 17 | 280 | 6.4 | 17.7 | 0.00 | 0.00 | 0.00 | 77 | 1010.7 |
| 20260902015904 | 17 | 265 | 6.4 | 17.7 | 0.00 | 0.00 | 0.00 | 75 | 1010.7 |
| 20260902014903 | 17 | 267 | 4.8 | 19.3 | 0.00 | 0.00 | 0.00 | 72 | 1010.6 |
| 20260902014359 | 18 | 305 | 4.8 | 12.9 | 0.00 | 0.00 | 0.00 | 70 | 1010.7 |
| 20260902013901 | 18 | 309 | 4.8 | 16.1 | 0.00 | 0.00 | 0.00 | 69 | 1010.7 |
| 20260902013400 | 18 | 308 | 4.8 | 16.1 | 0.00 | 0.00 | 0.00 | 69 | 1010.7 |
| 20260902012859 | 18 | 313 | 6.4 | 16.1 | 0.00 | 0.00 | 0.00 | 68 | 1010.7 |
| 20260902012359 | 19 | 313 | 6.4 | 11.3 | 0.00 | 0.00 | 0.00 | 66 | 1010.7 |
| 20260902011854 | 19 | 315 | 6.4 | 12.9 | 0.00 | 0.00 | 0.00 | 65 | 1010.7 |
| 20260902011355 | 20 | 306 | 6.4 | 12.9 | 0.00 | 0.00 | 0.00 | 64 | 1010.7 |
| 20260902010852 | 20 | 309 | 6.4 | 14.5 | 0.00 | 0.00 | 0.00 | 62 | 1010.7 |
| 20260902010349 | 20 | 306 | 6.4 | 14.5 | 0.00 | 0.00 | 0.00 | 63 | 1010.7 |
| 20260902005845 | 20 | 306 | 6.4 | 14.5 | 0.00 | 0.00 | 0.00 | 62 | 1010.7 |
| 20260902005345 | 20 | 324 | 6.4 | 17.7 | 0.00 | 0.00 | 0.00 | 61 | 1010.7 |
| 20260902004845 | 20 | 339 | 6.4 | 17.7 | 0.00 | 0.00 | 0.00 | 60 | 1010.7 |
| 20260902004344 | 20 | 321 | 6.4 | 14.5 | 0.00 | 0.00 | 0.00 | 60 | 1010.7 |
| 20260902003839 | 20 | 319 | 6.4 | 12.9 | 0.00 | 0.00 | 0.00 | 60 | 1010.7 |
| 20260902003340 | 21 | 348 | 6.4 | 20.9 | 0.00 | 0.00 | 0.00 | 60 | 1010.7 |
| 20260902002839 | 21 | 267 | 6.4 | 20.9 | 0.00 | 0.00 | 0.00 | 59 | 1010.7 |
| 20260902002338 | 21 | 325 | 8.0 | 19.3 | 0.00 | 0.00 | 0.00 | 58 | 1010.7 |
| 20260902001836 | 21 | 301 | 6.4 | 14.5 | 0.00 | 0.00 | 0.00 | 58 | 1010.7 |
| 20260902001339 | 21 | 340 | 6.4 | 16.1 | 0.00 | 0.00 | 0.00 | 57 | 1010.7 |
| 20260902000831 | 21 | 317 | 6.4 | 16.1 | 0.00 | 0.00 | 0.00 | 56 | 1010.7 |
| 20260902000329 | 21 | 315 | 6.4 | 14.5 | 0.00 | 0.00 | 0.00 | 55 | 1010.7 |
| 20260901235828 | 21 | 317 | 6.4 | 19.3 | 0.00 | 0.00 | 0.00 | 56 | 1010.7 |
| 20260901235327 | 21 | 324 | 8.0 | 19.3 | 0.00 | 0.00 | 0.00 | 57 | 1010.7 |
| 20260901234824 | 21 | 309 | 8.0 | 17.7 | 0.00 | 0.00 | 0.00 | 56 | 1010.7 |
| 20260901234323 | 21 | 315 | 8.0 | 17.7 | 0.00 | 0.00 | 0.00 | 56 | 1010.7 |
| 20260901233821 | 22 | 311 | 6.4 | 17.7 | 0.00 | 0.00 | 0.00 | 56 | 1010.7 |
| 20260901233321 | 22 | 317 | 6.4 | 17.7 | 0.00 | 0.00 | 0.00 | 56 | 1010.7 |
| 20260901232323 | 22 | 355 | 6.4 | 16.1 | 0.00 | 0.00 | 0.00 | 56 | 1010.7 |
| 20260901231818 | 21 | 331 | 8.0 | 16.1 | 0.00 | 0.00 | 0.00 | 56 | 1010.7 |
| 20260901231319 | 22 | 306 | 8.0 | 16.1 | 0.00 | 0.00 | 0.00 | 55 | 1010.7 |
| 20260901230814 | 22 | 334 | 6.4 | 16.1 | 0.00 | 0.00 | 0.00 | 54 | 1010.7 |
| 20260901230315 | 22 | 318 | 6.4 | 16.1 | 0.00 | 0.00 | 0.00 | 55 | 1010.7 |
| 20260901225815 | 22 | 322 | 8.0 | 17.7 | 0.00 | 0.00 | 0.00 | 54 | 1010.7 |
| 20260901225310 | 22 | 321 | 6.4 | 17.7 | 0.00 | 0.00 | 0.00 | 55 | 1010.7 |
| 20260901224809 | 22 | 311 | 6.4 | 16.1 | 0.00 | 0.00 | 0.00 | 54 | 1010.7 |
| 20260901224307 | 22 | 343 | 6.4 | 16.1 | 0.00 | 0.00 | 0.00 | 53 | 1010.9 |
| 20260901223259 | 22 | 323 | 6.4 | 16.1 | 0.00 | 0.00 | 0.00 | 55 | 1010.8 |
| 20260901222801 | 22 | 351 | 6.4 | 16.1 | 0.00 | 0.00 | 0.00 | 55 | 1011.0 |
| 20260901222301 | 22 | 348 | 6.4 | 14.5 | 0.00 | 0.00 | 0.00 | 56 | 1011.0 |
| 20260901221801 | 22 | 329 | 6.4 | 16.1 | 0.00 | 0.00 | 0.00 | 55 | 1011.0 |
| 20260901221259 | 22 | 295 | 8.0 | 16.1 | 0.00 | 0.00 | 0.00 | 55 | 1011.1 |
| 20260901220752 | 22 | 328 | 8.0 | 17.7 | 0.00 | 0.00 | 0.00 | 56 | 1011.1 |
| 20260901220253 | 22 | 312 | 8.0 | 17.7 | 0.00 | 0.00 | 0.00 | 55 | 1011.1 |
| 20260901215751 | 22 | 340 | 8.0 | 16.1 | 0.00 | 0.00 | 0.00 | 54 | 1011.2 |
| 20260901215250 | 22 | 312 | 8.0 | 16.1 | 0.00 | 0.00 | 0.00 | 54 | 1011.2 |
| 20260901214747 | 22 | 355 | 8.0 | 16.1 | 0.00 | 0.00 | 0.00 | 54 | 1011.2 |
| 20260901214246 | 22 | 280 | 8.0 | 16.1 | 0.00 | 0.00 | 0.00 | 54 | 1011.2 |
| 20260901213744 | 22 | 323 | 8.0 | 17.7 | 0.00 | 0.00 | 0.00 | 53 | 1011.2 |
| 20260901213247 | 22 | 315 | 8.0 | 19.3 | 0.00 | 0.00 | 0.00 | 53 | 1011.2 |
| 20260901212744 | 22 | 306 | 8.0 | 19.3 | 0.00 | 0.00 | 0.00 | 53 | 1011.2 |
| 20260901212245 | 22 | 315 | 8.0 | 17.7 | 0.00 | 0.00 | 0.00 | 54 | 1011.2 |
| 20260901211745 | 22 | 309 | 8.0 | 17.7 | 0.00 | 0.00 | 0.00 | 53 | 1011.2 |
| 20260901211242 | 22 | 340 | 8.0 | 17.7 | 0.00 | 0.00 | 0.00 | 54 | 1011.2 |
| 20260901210741 | 22 | 312 | 8.0 | 17.7 | 0.00 | 0.00 | 0.00 | 54 | 1011.2 |
| 20260901210238 | 22 | 335 | 8.0 | 17.7 | 0.00 | 0.00 | 0.00 | 54 | 1011.2 |
| 20260901205737 | 22 | 302 | 8.0 | 20.9 | 0.00 | 0.00 | 0.00 | 53 | 1011.2 |
| 20260901204734 | 22 | 312 | 8.0 | 17.7 | 0.00 | 0.00 | 0.00 | 53 | 1011.2 |
| 20260901203731 | 23 | 329 | 8.0 | 19.3 | 0.00 | 0.00 | 0.00 | 52 | 1011.4 |
| 20260901203231 | 23 | 317 | 6.4 | 16.1 | 0.00 | 0.00 | 0.00 | 53 | 1011.4 |
| 20260901202730 | 23 | 350 | 6.4 | 14.5 | 0.00 | 0.00 | 0.00 | 53 | 1011.4 |
| 20260901202228 | 23 | 306 | 6.4 | 12.9 | 0.00 | 0.00 | 0.00 | 54 | 1011.4 |
| 20260901201225 | 23 | 355 | 6.4 | 14.5 | 0.00 | 0.00 | 0.00 | 55 | 1011.4 |
| 20260901200725 | 23 | 328 | 6.4 | 12.9 | 0.00 | 0.00 | 0.00 | 54 | 1011.4 |
| 20260901200221 | 23 | 323 | 6.4 | 12.9 | 0.00 | 0.00 | 0.00 | 54 | 1011.4 |
| 20260901195219 | 23 | 282 | 4.8 | 16.1 | 0.00 | 0.00 | 0.00 | 53 | 1011.5 |
| 20260901194719 | 23 | 331 | 4.8 | 16.1 | 0.00 | 0.00 | 0.00 | 53 | 1011.5 |
| 20260901194217 | 23 | 348 | 4.8 | 16.1 | 0.00 | 0.00 | 0.00 | 54 | 1011.7 |
| 20260901193715 | 23 | 330 | 4.8 | 12.9 | 0.00 | 0.00 | 0.00 | 55 | 1011.7 |
| 20260901193211 | 23 | 322 | 4.8 | 12.9 | 0.00 | 0.00 | 0.00 | 54 | 1011.7 |
| 20260901192711 | 23 | 317 | 6.4 | 16.1 | 0.00 | 0.00 | 0.00 | 53 | 1011.8 |
| 20260901192213 | 23 | 308 | 6.4 | 16.1 | 0.00 | 0.00 | 0.00 | 53 | 1011.8 |
| 20260901191711 | 23 | 327 | 4.8 | 11.3 | 0.00 | 0.00 | 0.00 | 52 | 1011.8 |
| 20260901190708 | 22 | 344 | 4.8 | 11.3 | 0.00 | 0.00 | 0.00 | 54 | 1011.7 |
| 20260901190213 | 22 | 314 | 4.8 | 9.7 | 0.00 | 0.00 | 0.00 | 54 | 1011.7 |
| 20260901185706 | 22 | 348 | 4.8 | 14.5 | 0.00 | 0.00 | 0.00 | 53 | 1011.7 |